contact:dominique.lefevre@mio.osupytheas.fr, maurice.libes@osupytheas.fr, didier.mallarino@osupytheas.fr
Project:EMSO http://www.emso-fr.org/EMSO-France
Depth: 2436.0 m
Title:EMSO Ligure Ouest : Data MII capteur MICROCAT
DateTime_Computer,Latitude,Longitude,Temperature,Conductivity,Pressure,DateTime_Instrument
DateTime_Computer,Latitude,Longitude,degC,S m-1,dbar,DateTime_Instrument
2022-11-10T00:02:56Z,42.805,6.029,13.3016,4.60058,2470.693,2022-11-10T02:04:54Z
2022-11-10T00:05:59Z,42.805,6.029,13.3014,4.60060,2470.661,2022-11-10T02:07:57Z
2022-11-10T00:09:02Z,42.805,6.029,13.3015,4.60059,2470.646,2022-11-10T02:11:00Z
2022-11-10T00:12:05Z,42.805,6.029,13.3015,4.60062,2470.684,2022-11-10T02:14:03Z
2022-11-10T00:15:08Z,42.805,6.029,13.3013,4.60060,2470.67,2022-11-10T02:17:06Z
2022-11-10T00:18:11Z,42.805,6.029,13.3019,4.60059,2470.67,2022-11-10T02:20:09Z
2022-11-10T00:21:14Z,42.805,6.029,13.3015,4.60059,2470.684,2022-11-10T02:23:12Z
2022-11-10T00:24:17Z,42.805,6.029,13.3017,4.60060,2470.67,2022-11-10T02:26:15Z
2022-11-10T00:27:21Z,42.805,6.029,13.3016,4.60062,2470.67,2022-11-10T02:29:18Z
2022-11-10T00:30:24Z,42.805,6.029,13.3015,4.60062,2470.646,2022-11-10T02:32:21Z
2022-11-10T00:33:27Z,42.805,6.029,13.3015,4.60060,2470.646,2022-11-10T02:35:24Z
2022-11-10T00:36:30Z,42.805,6.029,13.3015,4.60059,2470.637,2022-11-10T02:38:28Z
2022-11-10T00:39:33Z,42.805,6.029,13.3010,4.60058,2470.646,2022-11-10T02:41:31Z
2022-11-10T00:42:36Z,42.805,6.029,13.3017,4.60064,2470.646,2022-11-10T02:44:34Z
2022-11-10T00:45:39Z,42.805,6.029,13.3015,4.60059,2470.646,2022-11-10T02:47:37Z
2022-11-10T00:48:42Z,42.805,6.029,13.3017,4.60059,2470.646,2022-11-10T02:50:40Z
2022-11-10T00:51:45Z,42.805,6.029,13.3013,4.60062,2470.661,2022-11-10T02:53:43Z
2022-11-10T00:54:48Z,42.805,6.029,13.3015,4.60062,2470.646,2022-11-10T02:56:46Z
2022-11-10T00:57:51Z,42.805,6.029,13.3015,4.60060,2470.646,2022-11-10T02:59:49Z
2022-11-10T01:00:54Z,42.805,6.029,13.3015,4.60061,2470.624,2022-11-10T03:02:52Z
2022-11-10T01:03:58Z,42.805,6.029,13.3021,4.60067,2470.661,2022-11-10T03:05:55Z
2022-11-10T01:07:01Z,42.805,6.029,13.3016,4.60059,2470.646,2022-11-10T03:08:58Z
2022-11-10T01:10:04Z,42.805,6.029,13.3021,4.60061,2470.637,2022-11-10T03:12:01Z
2022-11-10T01:13:07Z,42.805,6.029,13.3019,4.60062,2470.624,2022-11-10T03:15:04Z
2022-11-10T01:16:10Z,42.805,6.029,13.3019,4.60060,2470.67,2022-11-10T03:18:07Z
2022-11-10T01:19:13Z,42.805,6.029,13.3014,4.60061,2470.646,2022-11-10T03:21:11Z
2022-11-10T01:22:16Z,42.805,6.029,13.3017,4.60060,2470.624,2022-11-10T03:24:14Z
2022-11-10T01:25:19Z,42.805,6.029,13.3015,4.60060,2470.637,2022-11-10T03:27:17Z
2022-11-10T01:28:22Z,42.805,6.029,13.3012,4.60060,2470.624,2022-11-10T03:30:20Z
2022-11-10T01:31:25Z,42.805,6.029,13.3011,4.60059,2470.624,2022-11-10T03:33:23Z
2022-11-10T01:34:28Z,42.805,6.029,13.3013,4.60060,2470.614,2022-11-10T03:36:26Z
2022-11-10T01:37:31Z,42.805,6.029,13.3015,4.60058,2470.624,2022-11-10T03:39:29Z
2022-11-10T01:40:34Z,42.805,6.029,13.3014,4.60059,2470.646,2022-11-10T03:42:32Z
2022-11-10T01:43:38Z,42.805,6.029,13.3014,4.60060,2470.624,2022-11-10T03:45:35Z
2022-11-10T01:46:41Z,42.805,6.029,13.3014,4.60060,2470.646,2022-11-10T03:48:38Z
2022-11-10T01:49:44Z,42.805,6.029,13.3019,4.60063,2470.6,2022-11-10T03:51:41Z
2022-11-10T01:52:47Z,42.805,6.029,13.3026,4.60062,2470.684,2022-11-10T03:54:44Z
2022-11-10T01:55:50Z,42.805,6.029,13.3016,4.60063,2470.646,2022-11-10T03:57:48Z
2022-11-10T01:58:53Z,42.805,6.029,13.3023,4.60066,2470.646,2022-11-10T04:00:51Z
2022-11-10T02:01:56Z,42.805,6.029,13.3033,4.60096,2470.624,2022-11-10T04:03:54Z
2022-11-10T02:04:59Z,42.805,6.029,13.3036,4.60090,2470.624,2022-11-10T04:06:57Z
2022-11-10T02:08:02Z,42.805,6.029,13.3043,4.60080,2470.637,2022-11-10T04:10:00Z
2022-11-10T02:11:05Z,42.805,6.029,13.3036,4.60087,2470.624,2022-11-10T04:13:03Z
2022-11-10T02:14:08Z,42.805,6.029,13.3033,4.60081,2470.661,2022-11-10T04:16:06Z
2022-11-10T02:17:11Z,42.805,6.029,13.3020,4.60073,2470.624,2022-11-10T04:19:09Z
2022-11-10T02:20:14Z,42.805,6.029,13.3017,4.60076,2470.624,2022-11-10T04:22:12Z
2022-11-10T02:23:18Z,42.805,6.029,13.3038,4.60079,2470.624,2022-11-10T04:25:15Z
2022-11-10T02:26:21Z,42.805,6.029,13.3041,4.60091,2470.637,2022-11-10T04:28:18Z
2022-11-10T02:29:24Z,42.805,6.029,13.3048,4.60113,2470.6,2022-11-10T04:31:21Z
2022-11-10T02:32:27Z,42.805,6.029,13.3019,4.60081,2470.637,2022-11-10T04:34:24Z
2022-11-10T02:35:30Z,42.805,6.029,13.3040,4.60110,2470.637,2022-11-10T04:37:28Z
2022-11-10T02:38:33Z,42.805,6.029,13.3037,4.60120,2470.646,2022-11-10T04:40:31Z
2022-11-10T02:41:36Z,42.805,6.029,13.3039,4.60087,2470.661,2022-11-10T04:43:34Z
2022-11-10T02:44:39Z,42.805,6.029,13.3041,4.60103,2470.614,2022-11-10T04:46:37Z
2022-11-10T02:47:42Z,42.805,6.029,13.3037,4.60111,2470.661,2022-11-10T04:49:40Z
2022-11-10T02:50:45Z,42.805,6.029,13.3023,4.60122,2470.646,2022-11-10T04:52:43Z
2022-11-10T02:53:48Z,42.805,6.029,13.3047,4.60129,2470.624,2022-11-10T04:55:46Z
2022-11-10T02:56:51Z,42.805,6.029,13.3032,4.60099,2470.614,2022-11-10T04:58:49Z
2022-11-10T02:59:54Z,42.805,6.029,13.3034,4.60119,2470.614,2022-11-10T05:01:52Z
2022-11-10T03:02:58Z,42.805,6.029,13.3030,4.60107,2470.577,2022-11-10T05:04:55Z
2022-11-10T03:06:01Z,42.805,6.029,13.3026,4.60095,2470.624,2022-11-10T05:07:58Z
2022-11-10T03:09:04Z,42.805,6.029,13.3026,4.60092,2470.624,2022-11-10T05:11:01Z
2022-11-10T03:12:07Z,42.805,6.029,13.3030,4.60122,2470.624,2022-11-10T05:14:04Z
2022-11-10T03:15:10Z,42.805,6.029,13.3034,4.60107,2470.637,2022-11-10T05:17:08Z
2022-11-10T03:18:13Z,42.805,6.029,13.3039,4.60120,2470.6,2022-11-10T05:20:11Z
2022-11-10T03:21:16Z,42.805,6.029,13.3034,4.60140,2470.661,2022-11-10T05:23:14Z
2022-11-10T03:24:19Z,42.805,6.029,13.3029,4.60111,2470.646,2022-11-10T05:26:17Z
2022-11-10T03:27:22Z,42.805,6.029,13.3044,4.60117,2470.67,2022-11-10T05:29:20Z
2022-11-10T03:30:25Z,42.805,6.029,13.3030,4.60125,2470.684,2022-11-10T05:32:23Z
2022-11-10T03:33:28Z,42.805,6.029,13.3032,4.60154,2470.637,2022-11-10T05:35:26Z
2022-11-10T03:36:31Z,42.805,6.029,13.3041,4.60114,2470.67,2022-11-10T05:38:29Z
2022-11-10T03:39:34Z,42.805,6.029,13.3031,4.60104,2470.624,2022-11-10T05:41:32Z
2022-11-10T03:42:38Z,42.805,6.029,13.3030,4.60117,2470.646,2022-11-10T05:44:35Z
2022-11-10T03:45:41Z,42.805,6.029,13.3038,4.60108,2470.661,2022-11-10T05:47:38Z
2022-11-10T03:48:44Z,42.805,6.029,13.3030,4.60092,2470.646,2022-11-10T05:50:41Z
2022-11-10T03:51:47Z,42.805,6.029,13.3028,4.60152,2470.646,2022-11-10T05:53:45Z
2022-11-10T03:54:50Z,42.805,6.029,13.3056,4.60133,2470.67,2022-11-10T05:56:48Z
2022-11-10T03:57:53Z,42.805,6.029,13.3039,4.60117,2470.693,2022-11-10T05:59:51Z
2022-11-10T04:00:56Z,42.805,6.029,13.3026,4.60114,2470.67,2022-11-10T06:02:54Z
2022-11-10T04:03:59Z,42.805,6.029,13.3031,4.60097,2470.684,2022-11-10T06:05:57Z
2022-11-10T04:07:02Z,42.805,6.029,13.3033,4.60113,2470.693,2022-11-10T06:09:00Z
2022-11-10T04:10:05Z,42.805,6.029,13.3029,4.60089,2470.693,2022-11-10T06:12:03Z
2022-11-10T04:13:08Z,42.805,6.029,13.3028,4.60108,2470.707,2022-11-10T06:15:06Z
2022-11-10T04:16:11Z,42.805,6.029,13.3027,4.60113,2470.684,2022-11-10T06:18:09Z
2022-11-10T04:19:15Z,42.805,6.029,13.3025,4.60095,2470.693,2022-11-10T06:21:12Z
2022-11-10T04:22:18Z,42.805,6.029,13.3024,4.60129,2470.74,2022-11-10T06:24:15Z
2022-11-10T04:25:21Z,42.805,6.029,13.3030,4.60114,2470.707,2022-11-10T06:27:18Z
2022-11-10T04:28:24Z,42.805,6.029,13.3039,4.60121,2470.67,2022-11-10T06:30:21Z
2022-11-10T04:31:27Z,42.805,6.029,13.3035,4.60141,2470.67,2022-11-10T06:33:24Z
2022-11-10T04:34:30Z,42.805,6.029,13.3044,4.60137,2470.707,2022-11-10T06:36:28Z
2022-11-10T04:37:33Z,42.805,6.029,13.3032,4.60118,2470.693,2022-11-10T06:39:31Z
2022-11-10T04:40:36Z,42.805,6.029,13.3023,4.60117,2470.717,2022-11-10T06:42:34Z
2022-11-10T04:43:39Z,42.805,6.029,13.3029,4.60129,2470.73,2022-11-10T06:45:37Z
2022-11-10T04:46:42Z,42.805,6.029,13.3039,4.60137,2470.693,2022-11-10T06:48:40Z
2022-11-10T04:49:45Z,42.805,6.029,13.3027,4.60126,2470.67,2022-11-10T06:51:43Z
2022-11-10T04:52:48Z,42.805,6.029,13.3026,4.60108,2470.717,2022-11-10T06:54:46Z
2022-11-10T04:55:51Z,42.805,6.029,13.3029,4.60107,2470.754,2022-11-10T06:57:49Z
2022-11-10T04:58:55Z,42.805,6.029,13.3034,4.60137,2470.73,2022-11-10T07:00:52Z
2022-11-10T05:01:58Z,42.805,6.029,13.3033,4.60116,2470.707,2022-11-10T07:03:55Z
2022-11-10T05:05:01Z,42.805,6.029,13.3028,4.60097,2470.703,2022-11-10T07:06:58Z
2022-11-10T05:08:04Z,42.805,6.029,13.3036,4.60102,2470.74,2022-11-10T07:10:01Z
2022-11-10T05:11:07Z,42.805,6.029,13.3043,4.60094,2470.717,2022-11-10T07:13:05Z
2022-11-10T05:14:10Z,42.805,6.029,13.3032,4.60089,2470.754,2022-11-10T07:16:08Z
2022-11-10T05:17:13Z,42.805,6.029,13.3039,4.60110,2470.74,2022-11-10T07:19:11Z
2022-11-10T05:20:16Z,42.805,6.029,13.3035,4.60098,2470.693,2022-11-10T07:22:14Z
2022-11-10T05:23:19Z,42.805,6.029,13.3026,4.60134,2470.73,2022-11-10T07:25:17Z
2022-11-10T05:26:22Z,42.805,6.029,13.3040,4.60079,2470.74,2022-11-10T07:28:20Z
2022-11-10T05:29:25Z,42.805,6.029,13.3031,4.60104,2470.777,2022-11-10T07:31:23Z
2022-11-10T05:32:28Z,42.805,6.029,13.3029,4.60110,2470.8,2022-11-10T07:34:26Z
2022-11-10T05:35:31Z,42.805,6.029,13.3028,4.60112,2470.777,2022-11-10T07:37:29Z
2022-11-10T05:38:35Z,42.805,6.029,13.3036,4.60112,2470.777,2022-11-10T07:40:32Z
2022-11-10T05:41:38Z,42.805,6.029,13.3034,4.60104,2470.74,2022-11-10T07:43:35Z
2022-11-10T05:44:41Z,42.805,6.029,13.3032,4.60098,2470.8,2022-11-10T07:46:38Z
2022-11-10T05:47:44Z,42.805,6.029,13.3039,4.60106,2470.763,2022-11-10T07:49:41Z
2022-11-10T05:50:47Z,42.805,6.029,13.3046,4.60119,2470.763,2022-11-10T07:52:45Z
2022-11-10T05:53:50Z,42.805,6.029,13.3038,4.60133,2470.777,2022-11-10T07:55:48Z
2022-11-10T05:56:53Z,42.805,6.029,13.3034,4.60141,2470.787,2022-11-10T07:58:51Z
2022-11-10T05:59:56Z,42.805,6.029,13.3032,4.60128,2470.787,2022-11-10T08:01:54Z
2022-11-10T06:02:59Z,42.805,6.029,13.3039,4.60126,2470.8,2022-11-10T08:04:57Z
2022-11-10T06:06:02Z,42.805,6.029,13.3038,4.60104,2470.81,2022-11-10T08:08:00Z
2022-11-10T06:09:05Z,42.805,6.029,13.3031,4.60129,2470.8,2022-11-10T08:11:03Z
2022-11-10T06:12:08Z,42.805,6.029,13.3041,4.60152,2470.824,2022-11-10T08:14:06Z
2022-11-10T06:15:11Z,42.805,6.029,13.3035,4.60135,2470.8,2022-11-10T08:17:09Z
2022-11-10T06:18:15Z,42.805,6.029,13.3035,4.60131,2470.81,2022-11-10T08:20:12Z
2022-11-10T06:21:18Z,42.805,6.029,13.3041,4.60138,2470.81,2022-11-10T08:23:15Z
2022-11-10T06:24:21Z,42.805,6.029,13.3041,4.60137,2470.871,2022-11-10T08:26:18Z
2022-11-10T06:27:24Z,42.805,6.029,13.3069,4.60135,2470.833,2022-11-10T08:29:21Z
2022-11-10T06:30:27Z,42.805,6.029,13.3035,4.60135,2470.847,2022-11-10T08:32:25Z
2022-11-10T06:33:30Z,42.805,6.029,13.3031,4.60114,2470.824,2022-11-10T08:35:28Z
2022-11-10T06:36:33Z,42.805,6.029,13.3036,4.60140,2470.847,2022-11-10T08:38:31Z
2022-11-10T06:39:36Z,42.805,6.029,13.3048,4.60141,2470.824,2022-11-10T08:41:34Z
2022-11-10T06:42:39Z,42.805,6.029,13.3031,4.60142,2470.847,2022-11-10T08:44:37Z
2022-11-10T06:45:42Z,42.805,6.029,13.3029,4.60131,2470.857,2022-11-10T08:47:40Z
2022-11-10T06:48:45Z,42.805,6.029,13.3042,4.60148,2470.833,2022-11-10T08:50:43Z
2022-11-10T06:51:48Z,42.805,6.029,13.3038,4.60132,2470.833,2022-11-10T08:53:46Z
2022-11-10T06:54:51Z,42.805,6.029,13.3038,4.60142,2470.81,2022-11-10T08:56:49Z
2022-11-10T06:57:55Z,42.805,6.029,13.3032,4.60140,2470.847,2022-11-10T08:59:52Z
2022-11-10T07:00:58Z,42.805,6.029,13.3029,4.60130,2470.833,2022-11-10T09:02:55Z
2022-11-10T07:04:01Z,42.805,6.029,13.3027,4.60131,2470.871,2022-11-10T09:05:58Z
2022-11-10T07:07:04Z,42.805,6.029,13.3039,4.60142,2470.833,2022-11-10T09:09:01Z
2022-11-10T07:10:07Z,42.805,6.029,13.3035,4.60135,2470.847,2022-11-10T09:12:05Z
2022-11-10T07:13:10Z,42.805,6.029,13.3047,4.60133,2470.833,2022-11-10T09:15:08Z
2022-11-10T07:16:13Z,42.805,6.029,13.3041,4.60149,2470.833,2022-11-10T09:18:11Z
2022-11-10T07:19:16Z,42.805,6.029,13.3034,4.60119,2470.833,2022-11-10T09:21:14Z
2022-11-10T07:22:19Z,42.805,6.029,13.3026,4.60133,2470.857,2022-11-10T09:24:17Z
2022-11-10T07:25:22Z,42.805,6.029,13.3031,4.60149,2470.894,2022-11-10T09:27:20Z
2022-11-10T07:28:25Z,42.805,6.029,13.3034,4.60178,2470.871,2022-11-10T09:30:23Z
2022-11-10T07:31:28Z,42.805,6.029,13.3027,4.60150,2470.871,2022-11-10T09:33:26Z
2022-11-10T07:34:31Z,42.805,6.029,13.3042,4.60141,2470.857,2022-11-10T09:36:29Z
2022-11-10T07:37:35Z,42.805,6.029,13.3026,4.60123,2470.88,2022-11-10T09:39:32Z
2022-11-10T07:40:38Z,42.805,6.029,13.3034,4.60135,2470.894,2022-11-10T09:42:35Z
2022-11-10T07:43:41Z,42.805,6.029,13.3041,4.60145,2470.88,2022-11-10T09:45:38Z
2022-11-10T07:46:44Z,42.805,6.029,13.3067,4.60144,2470.833,2022-11-10T09:48:42Z
2022-11-10T07:49:47Z,42.805,6.029,13.3039,4.60128,2470.833,2022-11-10T09:51:45Z
2022-11-10T07:52:50Z,42.805,6.029,13.3040,4.60149,2470.857,2022-11-10T09:54:48Z
2022-11-10T07:55:53Z,42.805,6.029,13.3031,4.60134,2470.871,2022-11-10T09:57:51Z
2022-11-10T07:58:56Z,42.805,6.029,13.3026,4.60141,2470.857,2022-11-10T10:00:54Z
2022-11-10T08:01:59Z,42.805,6.029,13.3049,4.60125,2470.871,2022-11-10T10:03:57Z
2022-11-10T08:05:02Z,42.805,6.029,13.3038,4.60122,2470.88,2022-11-10T10:07:00Z
2022-11-10T08:08:05Z,42.805,6.029,13.3040,4.60112,2470.88,2022-11-10T10:10:03Z
2022-11-10T08:11:08Z,42.805,6.029,13.3034,4.60160,2470.904,2022-11-10T10:13:06Z
2022-11-10T08:14:12Z,42.805,6.029,13.3050,4.60124,2470.894,2022-11-10T10:16:09Z
2022-11-10T08:17:15Z,42.805,6.029,13.3041,4.60167,2470.871,2022-11-10T10:19:12Z
2022-11-10T08:20:18Z,42.805,6.029,13.3042,4.60129,2470.857,2022-11-10T10:22:15Z
2022-11-10T08:23:21Z,42.805,6.029,13.3041,4.60140,2470.871,2022-11-10T10:25:18Z
2022-11-10T08:26:24Z,42.805,6.029,13.3030,4.60112,2470.871,2022-11-10T10:28:22Z
2022-11-10T08:29:27Z,42.805,6.029,13.3036,4.60135,2470.857,2022-11-10T10:31:25Z
2022-11-10T08:32:30Z,42.805,6.029,13.3036,4.60141,2470.857,2022-11-10T10:34:28Z
2022-11-10T08:35:33Z,42.805,6.029,13.3058,4.60121,2470.847,2022-11-10T10:37:31Z
2022-11-10T08:38:36Z,42.805,6.029,13.3048,4.60122,2470.88,2022-11-10T10:40:34Z
2022-11-10T08:41:39Z,42.805,6.029,13.3056,4.60123,2470.857,2022-11-10T10:43:37Z
2022-11-10T08:44:42Z,42.805,6.029,13.3049,4.60116,2470.857,2022-11-10T10:46:40Z
2022-11-10T08:47:45Z,42.805,6.029,13.3046,4.60098,2470.833,2022-11-10T10:49:43Z
2022-11-10T08:50:49Z,42.805,6.029,13.3046,4.60106,2470.871,2022-11-10T10:52:46Z
2022-11-10T08:53:52Z,42.805,6.029,13.3041,4.60097,2470.857,2022-11-10T10:55:49Z
2022-11-10T08:56:55Z,42.805,6.029,13.3050,4.60089,2470.833,2022-11-10T10:58:52Z
2022-11-10T08:59:58Z,42.805,6.029,13.3046,4.60117,2470.871,2022-11-10T11:01:55Z
2022-11-10T09:03:01Z,42.805,6.029,13.3046,4.60096,2470.847,2022-11-10T11:04:59Z
2022-11-10T09:06:04Z,42.805,6.029,13.3022,4.60064,2470.833,2022-11-10T11:08:02Z
2022-11-10T09:09:07Z,42.805,6.029,13.3023,4.60091,2470.857,2022-11-10T11:11:05Z
2022-11-10T09:12:10Z,42.805,6.029,13.3031,4.60077,2470.81,2022-11-10T11:14:08Z
2022-11-10T09:15:13Z,42.805,6.029,13.3043,4.60099,2470.871,2022-11-10T11:17:11Z
2022-11-10T09:18:16Z,42.805,6.029,13.3048,4.60096,2470.847,2022-11-10T11:20:14Z
2022-11-10T09:21:19Z,42.805,6.029,13.3049,4.60089,2470.833,2022-11-10T11:23:17Z
2022-11-10T09:24:22Z,42.805,6.029,13.3037,4.60089,2470.847,2022-11-10T11:26:20Z
2022-11-10T09:27:25Z,42.805,6.029,13.3019,4.60093,2470.833,2022-11-10T11:29:23Z
2022-11-10T09:30:29Z,42.805,6.029,13.3033,4.60064,2470.871,2022-11-10T11:32:26Z
2022-11-10T09:33:32Z,42.805,6.029,13.3016,4.60063,2470.847,2022-11-10T11:35:29Z
2022-11-10T09:36:35Z,42.805,6.029,13.3019,4.60067,2470.871,2022-11-10T11:38:32Z
2022-11-10T09:39:38Z,42.805,6.029,13.3010,4.60062,2470.833,2022-11-10T11:41:36Z
2022-11-10T09:42:41Z,42.805,6.029,13.3013,4.60066,2470.871,2022-11-10T11:44:39Z
2022-11-10T09:45:44Z,42.805,6.029,13.3011,4.60059,2470.847,2022-11-10T11:47:42Z
2022-11-10T09:48:47Z,42.805,6.029,13.3026,4.60061,2470.857,2022-11-10T11:50:45Z
2022-11-10T09:51:50Z,42.805,6.029,13.3014,4.60060,2470.833,2022-11-10T11:53:48Z
2022-11-10T09:54:53Z,42.805,6.029,13.3013,4.60062,2470.833,2022-11-10T11:56:51Z
2022-11-10T09:57:56Z,42.805,6.029,13.3012,4.60059,2470.833,2022-11-10T11:59:54Z
2022-11-10T10:00:59Z,42.805,6.029,13.3015,4.60064,2470.833,2022-11-10T12:02:57Z
2022-11-10T10:04:02Z,42.805,6.029,13.3019,4.60070,2470.833,2022-11-10T12:06:00Z
2022-11-10T10:07:06Z,42.805,6.029,13.3016,4.60068,2470.824,2022-11-10T12:09:03Z
2022-11-10T10:10:09Z,42.805,6.029,13.3015,4.60061,2470.81,2022-11-10T12:12:06Z
2022-11-10T10:13:12Z,42.805,6.029,13.3012,4.60062,2470.847,2022-11-10T12:15:09Z
2022-11-10T10:16:15Z,42.805,6.029,13.3015,4.60061,2470.824,2022-11-10T12:18:13Z
2022-11-10T10:19:18Z,42.805,6.029,13.3015,4.60062,2470.871,2022-11-10T12:21:16Z
2022-11-10T10:22:21Z,42.805,6.029,13.3011,4.60058,2470.824,2022-11-10T12:24:19Z
2022-11-10T10:25:24Z,42.805,6.029,13.3011,4.60057,2470.833,2022-11-10T12:27:22Z
2022-11-10T10:28:27Z,42.805,6.029,13.3013,4.60058,2470.857,2022-11-10T12:30:25Z
2022-11-10T10:31:30Z,42.805,6.029,13.3010,4.60057,2470.824,2022-11-10T12:33:28Z
2022-11-10T10:34:33Z,42.805,6.029,13.3015,4.60063,2470.833,2022-11-10T12:36:31Z
2022-11-10T10:37:36Z,42.805,6.029,13.3012,4.60060,2470.833,2022-11-10T12:39:34Z
2022-11-10T10:40:39Z,42.805,6.029,13.3009,4.60060,2470.833,2022-11-10T12:42:37Z
2022-11-10T10:43:43Z,42.805,6.029,13.3012,4.60058,2470.833,2022-11-10T12:45:40Z
2022-11-10T10:46:46Z,42.805,6.029,13.3014,4.60058,2470.81,2022-11-10T12:48:43Z
2022-11-10T10:49:49Z,42.805,6.029,13.3014,4.60057,2470.8,2022-11-10T12:51:46Z
2022-11-10T10:52:52Z,42.805,6.029,13.3009,4.60059,2470.833,2022-11-10T12:54:50Z
2022-11-10T10:55:55Z,42.805,6.029,13.3014,4.60057,2470.787,2022-11-10T12:57:53Z
2022-11-10T10:58:58Z,42.805,6.029,13.3011,4.60059,2470.763,2022-11-10T13:00:56Z
2022-11-10T11:02:01Z,42.805,6.029,13.3013,4.60058,2470.787,2022-11-10T13:03:59Z
2022-11-10T11:05:04Z,42.805,6.029,13.3009,4.60061,2470.777,2022-11-10T13:07:02Z
2022-11-10T11:08:07Z,42.805,6.029,13.3010,4.60056,2470.777,2022-11-10T13:10:05Z
2022-11-10T11:11:10Z,42.805,6.029,13.3013,4.60057,2470.81,2022-11-10T13:13:08Z
2022-11-10T11:14:13Z,42.805,6.029,13.3014,4.60057,2470.787,2022-11-10T13:16:11Z
2022-11-10T11:17:16Z,42.805,6.029,13.3012,4.60057,2470.81,2022-11-10T13:19:14Z
2022-11-10T11:20:20Z,42.805,6.029,13.3010,4.60057,2470.8,2022-11-10T13:22:17Z
2022-11-10T11:23:23Z,42.805,6.029,13.3011,4.60060,2470.787,2022-11-10T13:25:20Z
2022-11-10T11:26:26Z,42.805,6.029,13.3010,4.60059,2470.763,2022-11-10T13:28:23Z
2022-11-10T11:29:29Z,42.805,6.029,13.3012,4.60059,2470.8,2022-11-10T13:31:27Z
2022-11-10T11:32:32Z,42.805,6.029,13.3013,4.60064,2470.787,2022-11-10T13:34:30Z
2022-11-10T11:35:35Z,42.805,6.029,13.3013,4.60057,2470.777,2022-11-10T13:37:33Z
2022-11-10T11:38:38Z,42.805,6.029,13.3014,4.60057,2470.754,2022-11-10T13:40:36Z
2022-11-10T11:41:41Z,42.805,6.029,13.3009,4.60057,2470.763,2022-11-10T13:43:39Z
2022-11-10T11:44:44Z,42.805,6.029,13.3009,4.60057,2470.763,2022-11-10T13:46:42Z
2022-11-10T11:47:47Z,42.805,6.029,13.3009,4.60057,2470.763,2022-11-10T13:49:45Z
2022-11-10T11:50:50Z,42.805,6.029,13.3017,4.60059,2470.787,2022-11-10T13:52:48Z
2022-11-10T11:53:53Z,42.805,6.029,13.3011,4.60059,2470.8,2022-11-10T13:55:51Z
2022-11-10T11:56:57Z,42.805,6.029,13.3013,4.60059,2470.787,2022-11-10T13:58:54Z
2022-11-10T12:00:00Z,42.805,6.029,13.3006,4.60057,2470.787,2022-11-10T14:01:57Z
2022-11-10T12:03:03Z,42.805,6.029,13.3010,4.60056,2470.74,2022-11-10T14:05:00Z
2022-11-10T12:06:06Z,42.805,6.029,13.3014,4.60056,2470.763,2022-11-10T14:08:04Z
2022-11-10T12:09:09Z,42.805,6.029,13.3012,4.60054,2470.74,2022-11-10T14:11:07Z
2022-11-10T12:12:12Z,42.805,6.029,13.3011,4.60055,2470.763,2022-11-10T14:14:10Z
2022-11-10T12:15:15Z,42.805,6.029,13.3009,4.60055,2470.74,2022-11-10T14:17:13Z
2022-11-10T12:18:18Z,42.805,6.029,13.3008,4.60054,2470.787,2022-11-10T14:20:16Z
2022-11-10T12:21:21Z,42.805,6.029,13.3011,4.60056,2470.763,2022-11-10T14:23:19Z
2022-11-10T12:24:24Z,42.805,6.029,13.3009,4.60062,2470.74,2022-11-10T14:26:22Z
2022-11-10T12:27:27Z,42.805,6.029,13.3009,4.60054,2470.717,2022-11-10T14:29:25Z
2022-11-10T12:30:30Z,42.805,6.029,13.3010,4.60056,2470.74,2022-11-10T14:32:28Z
2022-11-10T12:33:34Z,42.805,6.029,13.3008,4.60055,2470.777,2022-11-10T14:35:31Z
2022-11-10T12:36:37Z,42.805,6.029,13.3011,4.60056,2470.74,2022-11-10T14:38:34Z
2022-11-10T12:39:40Z,42.805,6.029,13.3017,4.60056,2470.763,2022-11-10T14:41:37Z
2022-11-10T12:42:43Z,42.805,6.029,13.3009,4.60054,2470.74,2022-11-10T14:44:41Z
2022-11-10T12:45:46Z,42.805,6.029,13.3011,4.60055,2470.74,2022-11-10T14:47:44Z
2022-11-10T12:48:49Z,42.805,6.029,13.3012,4.60054,2470.717,2022-11-10T14:50:47Z
2022-11-10T12:51:52Z,42.805,6.029,13.3008,4.60054,2470.74,2022-11-10T14:53:50Z
2022-11-10T12:54:55Z,42.805,6.029,13.3013,4.60054,2470.717,2022-11-10T14:56:53Z
2022-11-10T12:57:58Z,42.805,6.029,13.3009,4.60054,2470.74,2022-11-10T14:59:56Z
2022-11-10T13:01:01Z,42.805,6.029,13.3009,4.60054,2470.74,2022-11-10T15:02:59Z
2022-11-10T13:04:04Z,42.805,6.029,13.3009,4.60062,2470.73,2022-11-10T15:06:02Z
2022-11-10T13:07:07Z,42.805,6.029,13.3010,4.60055,2470.717,2022-11-10T15:09:05Z
2022-11-10T13:10:11Z,42.805,6.029,13.3009,4.60054,2470.717,2022-11-10T15:12:08Z
2022-11-10T13:13:14Z,42.805,6.029,13.3010,4.60056,2470.74,2022-11-10T15:15:11Z
2022-11-10T13:16:17Z,42.805,6.029,13.3009,4.60057,2470.73,2022-11-10T15:18:14Z
2022-11-10T13:19:20Z,42.805,6.029,13.3010,4.60054,2470.717,2022-11-10T15:21:18Z
2022-11-10T13:22:23Z,42.805,6.029,13.3007,4.60055,2470.754,2022-11-10T15:24:21Z
2022-11-10T13:25:26Z,42.805,6.029,13.3007,4.60055,2470.693,2022-11-10T15:27:24Z
2022-11-10T13:28:29Z,42.805,6.029,13.3009,4.60055,2470.707,2022-11-10T15:30:27Z
2022-11-10T13:31:32Z,42.805,6.029,13.3008,4.60054,2470.717,2022-11-10T15:33:30Z
2022-11-10T13:34:35Z,42.805,6.029,13.3011,4.60054,2470.717,2022-11-10T15:36:33Z
2022-11-10T13:37:38Z,42.805,6.029,13.3011,4.60054,2470.73,2022-11-10T15:39:36Z
2022-11-10T13:40:41Z,42.805,6.029,13.3010,4.60055,2470.73,2022-11-10T15:42:39Z
2022-11-10T13:43:44Z,42.805,6.029,13.3013,4.60055,2470.703,2022-11-10T15:45:42Z
2022-11-10T13:46:47Z,42.805,6.029,13.3011,4.60057,2470.707,2022-11-10T15:48:45Z
2022-11-10T13:49:51Z,42.805,6.029,13.3009,4.60057,2470.73,2022-11-10T15:51:48Z
2022-11-10T13:52:54Z,42.805,6.029,13.3010,4.60056,2470.73,2022-11-10T15:54:51Z
2022-11-10T13:55:57Z,42.805,6.029,13.3014,4.60057,2470.73,2022-11-10T15:57:54Z
2022-11-10T13:59:00Z,42.805,6.029,13.3010,4.60054,2470.73,2022-11-10T16:00:58Z
2022-11-10T14:02:03Z,42.805,6.029,13.3009,4.60055,2470.693,2022-11-10T16:04:01Z
2022-11-10T14:05:06Z,42.805,6.029,13.3013,4.60059,2470.73,2022-11-10T16:07:04Z
2022-11-10T14:08:09Z,42.805,6.029,13.3007,4.60057,2470.693,2022-11-10T16:10:07Z
2022-11-10T14:11:12Z,42.805,6.029,13.3012,4.60058,2470.717,2022-11-10T16:13:10Z
2022-11-10T14:14:15Z,42.805,6.029,13.3013,4.60057,2470.693,2022-11-10T16:16:13Z
2022-11-10T14:17:18Z,42.805,6.029,13.3010,4.60054,2470.717,2022-11-10T16:19:16Z
2022-11-10T14:20:21Z,42.805,6.029,13.3007,4.60054,2470.717,2022-11-10T16:22:19Z
2022-11-10T14:23:24Z,42.805,6.029,13.3008,4.60057,2470.717,2022-11-10T16:25:22Z
2022-11-10T14:26:28Z,42.805,6.029,13.3011,4.60056,2470.707,2022-11-10T16:28:25Z
2022-11-10T14:29:31Z,42.805,6.029,13.3010,4.60058,2470.693,2022-11-10T16:31:28Z
2022-11-10T14:32:34Z,42.805,6.029,13.3006,4.60059,2470.717,2022-11-10T16:34:31Z
2022-11-10T14:35:37Z,42.805,6.029,13.3010,4.60054,2470.717,2022-11-10T16:37:35Z
2022-11-10T14:38:40Z,42.805,6.029,13.3010,4.60055,2470.717,2022-11-10T16:40:38Z
2022-11-10T14:41:43Z,42.805,6.029,13.3012,4.60058,2470.717,2022-11-10T16:43:41Z
2022-11-10T14:44:46Z,42.805,6.029,13.3010,4.60055,2470.693,2022-11-10T16:46:44Z
2022-11-10T14:47:49Z,42.805,6.029,13.3008,4.60056,2470.73,2022-11-10T16:49:47Z
2022-11-10T14:50:52Z,42.805,6.029,13.3011,4.60058,2470.707,2022-11-10T16:52:50Z
2022-11-10T14:53:55Z,42.805,6.029,13.3007,4.60061,2470.693,2022-11-10T16:55:53Z
2022-11-10T14:56:58Z,42.805,6.029,13.3009,4.60057,2470.693,2022-11-10T16:58:56Z
2022-11-10T15:00:01Z,42.805,6.029,13.3012,4.60056,2470.707,2022-11-10T17:01:59Z
2022-11-10T15:03:05Z,42.805,6.029,13.3010,4.60056,2470.693,2022-11-10T17:05:02Z